Temperature
8 6 6 7 7 8 8 8 8 9 12 12 13 14 14 15 16 16 17 17 17 18 18 18 18 17 17 16 17 17 17 16 16 15 14 14 14 13 13 13 12 12 12 12
6 6 7 7 7 8 8 7 8 9 11 12 11 12 14 15 15 16 17 17 17 17 17 17 17 16 16 16 16 16 16 15 15 15 14 14 13 13 12 12 12 12 12 11
6 7 8 8 7 7 7 7 7 8 9 11 11 11 13 14 15 17 17 18 18 17 17 16 16 16 15 15 15 15 15 14 14 14 14 13 13 12 12 12 12 11 11 11
6 7 8 7 7 7 7 8 9 9 9 8 10 10 12 13 14 15 16 17 17 16 16 16 15 15 15 14 14 14 14 14 13 13 13 13 13 13 12 12 11 11 11 10
6 6 7 7 7 8 7 9 9 9 8 8 9 9 10 12 14 15 15 16 16 16 16 15 15 14 14 14 13 13 13 13 13 13 13 13 13 13 12 11 11 11 10 9
6 7 7 7 8 9 9 9 9 8 8 8 9 9 10 12 14 15 15 15 15 14 14 14 13 13 13 13 13 13 13 13 13 13 12 13 13 12 12 11 10 10 9 9
5 6 7 8 7 8 8 7 7 7 7 8 10 10 11 12 14 15 15 14 14 13 12 13 12 12 12 12 12 12 12 12 12 12 12 12 12 12 11 10 10 9 8 8
5 5 6 7 7 7 7 7 7 7 7 8 10 11 12 13 14 15 16 15 12 11 11 12 12 12 12 12 12 12 12 12 12 12 12 11 11 11 10 9 9 8 8 7
5 6 7 8 8 8 7 7 8 8 8 9 10 11 12 13 13 13 13 13 11 10 10 11 12 12 12 12 12 12 12 12 12 12 11 11 10 10 9 8 8 7 7 7
5 5 7 7 7 7 7 7 7 6 7 9 10 11 12 13 13 12 12 11 10 9 9 10 11 11 11 12 12 12 12 12 12 11 11 10 10 9 8 8 7 7 6 6
6 5 6 6 6 6 6 7 8 7 7 9 11 12 14 15 14 12 11 11 10 9 9 10 11 11 11 11 11 11 11 11 11 11 10 10 9 8 8 7 6 6 6 5
6 5 5 6 7 8 7 7 8 8 8 8 9 12 14 14 14 13 11 11 10 9 9 10 11 10 11 11 11 11 11 11 10 10 9 9 8 7 7 6 6 5 5 4
6 5 6 7 7 7 7 8 9 9 8 8 9 12 13 12 12 12 11 11 10 9 9 10 10 10 10 11 11 10 10 10 10 9 9 8 7 6 6 5 5 5 4 3
7 6 6 8 8 8 8 8 9 9 8 9 10 11 12 12 12 11 11 10 10 9 9 10 10 10 10 10 10 10 9 9 8 8 8 7 6 5 5 5 4 4 3 2
7 6 6 7 8 8 9 9 9 9 9 9 10 12 13 12 12 11 11 10 9 9 9 10 10 10 10 10 9 9 8 8 7 7 6 6 5 5 4 4 3 3 2 1
7 7 7 8 9 9 9 10 10 9 9 9 11 12 13 12 11 10 11 10 10 9 9 10 10 10 10 9 9 8 7 7 6 6 6 5 4 4 3 3 2 2 1 1
7 7 8 9 10 10 10 11 10 10 10 11 11 13 12 12 11 10 11 11 10 10 10 10 11 11 10 9 9 8 7 6 6 5 5 4 4 3 3 2 1 1 1 0
8 8 8 9 10 10 12 12 12 11 12 12 13 13 13 11 10 11 12 12 11 11 11 11 11 10 10 9 8 7 6 5 5 4 4 3 3 2 2 1 1 0 -0 -1
8 9 9 8 9 10 12 12 12 12 12 12 12 10 9 9 10 10 11 12 13 12 12 11 11 10 9 8 7 6 5 5 4 3 3 2 2 2 1 0 0 -0 -1 -1
8 9 9 9 9 10 12 13 12 13 12 12 11 10 8 10 10 9 10 12 12 12 12 11 10 10 9 8 7 6 5 4 3 3 2 2 1 1 0 -0 -1 -1 -2 -2
9 9 9 9 9 9 11 12 13 12 12 11 11 10 10 10 10 8 9 11 11 11 11 10 10 9 8 7 6 5 4 3 2 2 1 1 1 0 -0 -1 -1 -2 -2 -3
8 8 8 9 9 10 12 12 12 11 10 9 9 10 9 6 7 8 9 10 10 10 9 9 8 7 6 5 5 4 3 2 2 1 1 0 -0 -0 -1 -2 -2 -3 -3 -3
8 9 9 9 10 10 11 11 11 11 10 8 8 9 9 6 6 8 8 8 8 8 7 7 7 6 4 4 3 3 2 1 1 1 0 -0 -1 -1 -2 -2 -3 -3 -3 -4
8 9 8 9 9 9 10 11 12 12 11 11 10 10 10 8 7 8 7 7 7 7 6 6 6 5 3 2 2 2 1 1 0 -0 -0 -1 -1 -2 -2 -3 -3 -3 -4 -5
8 8 8 9 9 9 9 10 11 11 11 10 9 9 10 9 8 8 7 7 6 6 5 5 5 4 3 1 1 1 0 0 -0 -1 -1 -2 -2 -2 -3 -3 -3 -4 -5 -6
7 8 9 9 9 8 8 10 11 11 10 10 9 8 8 9 8 8 7 7 6 5 5 4 3 2 2 1 0 -0 -0 -1 -1 -1 -2 -2 -2 -3 -3 -3 -3 -4 -5 -6
Wind_Speed
5 5 9 11 12 9 6 7 8 5 7 7 15 20 15 14 14 13 13 10 10 10 7 7 6 8 8 7 8 9 13 13 14 13 10 9 7 7 8 8 12 14 14 14
5 12 12 9 8 10 12 16 14 10 6 8 12 19 15 17 17 16 17 13 11 9 8 7 7 6 7 7 9 11 12 11 11 9 7 6 7 7 6 6 10 13 13 12
15 5 12 15 12 12 14 15 13 11 12 11 12 14 14 15 15 16 16 12 14 18 16 11 9 8 9 10 10 12 12 12 13 13 13 12 8 6 5 6 6 8 12 12
12 14 11 9 14 14 16 9 11 11 8 7 6 9 9 11 15 19 19 13 16 15 13 12 12 10 10 10 10 12 13 14 13 13 14 14 9 6 5 5 5 6 10 10
11 11 18 20 18 13 8 4 8 8 8 10 11 12 11 9 16 20 19 16 18 17 18 16 14 13 11 10 11 11 13 12 11 10 11 12 9 7 6 7 8 7 6 7
13 7 11 16 17 14 7 3 5 6 5 13 17 12 10 10 15 13 16 16 18 18 16 13 10 12 10 10 10 11 12 11 10 11 10 12 13 12 10 8 6 5 4 4
12 15 9 4 7 11 11 7 5 7 9 11 9 12 13 12 13 16 15 17 18 19 19 18 17 15 14 13 12 11 13 12 11 12 11 11 11 11 10 8 7 5 3 2
7 9 15 12 12 10 16 15 9 7 7 6 8 14 11 13 15 14 13 15 20 20 19 19 18 17 16 15 13 13 14 13 12 13 12 10 10 8 7 7 6 5 3 2
8 8 7 15 12 12 10 15 12 5 7 6 8 8 8 9 11 10 12 18 23 22 20 19 17 15 15 15 13 14 15 13 12 13 12 11 10 9 8 7 5 4 2 2
8 7 6 5 7 14 10 9 7 9 6 8 8 9 9 10 12 10 16 21 20 19 18 17 16 15 13 12 11 11 13 14 12 12 11 10 9 9 8 7 6 4 3 2
10 8 5 6 12 16 14 14 9 10 7 5 5 7 9 15 15 17 19 20 22 22 20 18 15 13 12 12 12 12 12 13 11 11 10 10 9 8 8 6 5 4 2 3
11 7 8 12 12 15 16 16 14 9 8 6 5 8 6 10 13 17 18 17 16 17 17 16 15 14 14 13 12 12 11 11 10 10 11 10 9 8 7 6 4 3 3 3
11 7 5 5 8 11 14 16 18 9 3 6 6 9 7 3 9 12 15 16 15 16 15 14 14 15 15 14 13 12 11 11 10 10 11 9 8 8 6 5 4 3 3 3
12 7 9 8 3 5 11 19 21 15 9 9 10 12 7 4 9 11 13 15 16 17 17 16 15 13 13 13 13 12 11 11 11 11 10 9 8 7 6 4 3 3 3 4
8 7 10 18 19 14 13 19 23 21 14 10 10 11 11 9 11 13 15 16 17 17 17 18 17 14 14 13 12 12 11 11 11 11 9 8 7 6 5 4 3 3 4 5
7 6 8 11 13 15 14 18 21 21 19 15 12 9 6 3 6 9 14 18 18 18 18 17 16 16 16 15 14 13 12 11 11 10 8 7 6 5 4 3 3 4 5 6
6 4 5 5 1 7 9 17 19 16 13 14 11 8 3 5 8 12 15 18 19 19 17 18 17 16 15 15 15 15 12 11 11 9 8 7 6 5 4 3 4 5 5 6
7 4 3 4 3 0 3 7 15 15 14 12 8 5 6 7 6 5 2 11 13 14 15 15 14 13 12 12 14 13 12 12 10 9 8 6 6 5 4 3 4 4 4 5
7 4 3 3 4 4 3 3 7 8 7 9 10 6 7 8 6 6 6 3 8 9 11 12 12 13 14 15 16 15 12 11 10 8 7 6 5 4 3 3 4 4 4 5
4 4 1 3 3 2 3 1 1 5 4 3 8 11 10 9 6 3 3 6 11 12 12 13 14 15 15 14 15 15 12 10 9 8 7 6 5 3 2 3 3 3 4 6
4 3 4 2 3 6 6 4 2 5 5 1 4 10 11 6 6 9 9 10 13 14 14 15 15 14 13 13 14 13 11 9 8 7 7 5 4 2 2 3 3 5 5 6
7 6 5 5 4 7 4 2 4 4 1 3 3 5 10 13 15 13 12 13 15 15 14 14 14 12 10 11 13 12 9 8 8 7 6 4 3 3 3 4 4 5 6 6
7 8 6 7 7 3 3 0 1 2 3 3 5 11 18 16 13 12 11 12 12 13 12 11 15 13 9 9 12 12 8 8 8 7 5 4 4 4 4 4 5 5 5 5
4 4 4 4 6 3 1 2 3 3 4 7 11 14 16 17 14 14 13 11 10 11 11 11 13 12 9 8 9 9 8 8 8 6 5 4 3 3 4 3 4 4 5 6
6 7 5 4 3 1 2 2 5 7 11 13 11 11 15 19 16 13 12 11 11 10 9 9 11 11 10 9 9 8 8 8 7 6 4 3 2 3 4 4 4 5 4 7
6 7 8 8 8 7 6 7 8 11 11 13 15 11 10 13 14 12 10 9 10 10 10 10 10 11 10 9 9 7 7 7 7 4 3 1 2 3 3 4 5 8 10 14
Wind_Direction
210 193 215 212 215 239 269 268 273 281 310 291 262 263 253 247 248 246 250 245 224 212 201 179 145 128 116 108 111 121 127 129 127 125 119 114 105 98 87 81 81 79 77 73
237 233 227 219 223 238 253 266 275 292 289 295 289 282 263 241 240 239 242 232 207 193 188 174 143 127 123 116 112 116 123 124 124 121 116 113 113 98 84 79 71 72 72 70
217 229 214 217 224 232 241 245 255 268 306 297 288 280 258 246 238 238 239 222 197 187 183 172 153 138 127 125 127 127 124 122 121 120 118 115 102 88 77 72 69 67 74 72
235 239 257 231 226 221 246 236 242 254 262 271 276 285 264 243 237 236 236 217 197 188 175 164 155 146 138 133 129 128 128 127 127 129 133 134 132 126 121 113 98 78 73 72
224 207 223 236 234 219 231 216 233 244 251 266 255 269 266 244 239 231 227 210 197 184 173 167 160 149 137 133 130 128 126 125 123 121 126 122 114 113 115 108 100 84 67 65
232 225 220 227 233 226 229 248 265 241 243 254 240 231 263 226 229 226 219 204 191 175 164 154 143 136 129 125 125 126 125 121 119 117 115 121 123 125 123 120 113 97 77 53
232 230 233 222 208 212 209 211 222 214 215 242 203 213 247 235 234 229 218 197 181 168 160 156 151 147 143 137 132 130 128 124 120 116 112 117 121 122 125 127 124 120 100 66
221 230 210 209 205 199 203 202 208 205 221 241 193 225 242 234 247 245 225 187 168 165 163 161 157 153 149 143 137 134 131 127 122 118 115 112 112 111 111 113 117 121 127 134
215 241 205 208 201 189 192 207 223 274 293 252 224 238 260 231 244 231 190 168 167 165 162 159 156 154 151 146 143 139 134 128 123 122 119 113 111 110 110 109 107 112 119 119
205 244 232 197 196 209 204 174 172 210 239 244 236 225 221 208 217 191 170 167 164 159 157 157 157 155 150 143 135 131 131 130 127 123 122 119 113 112 115 113 112 111 100 72
203 224 241 195 205 204 197 199 193 193 230 259 242 242 213 206 196 180 174 169 165 163 161 160 158 153 144 137 136 133 131 130 127 122 118 116 115 115 114 114 117 118 97 56
201 223 248 235 223 207 199 201 196 196 206 228 276 275 273 208 183 174 170 166 160 157 155 156 155 149 147 146 144 140 137 133 130 126 120 117 116 116 115 117 119 109 75 27
181 212 250 245 212 197 204 203 206 212 226 233 244 267 317 149 152 162 158 154 153 152 152 152 154 156 155 153 149 145 140 134 130 126 121 117 118 120 123 125 113 81 42 1
179 213 226 249 251 195 196 199 201 204 218 235 244 264 284 166 153 151 152 153 154 158 160 160 160 159 156 153 150 145 138 135 133 127 123 123 128 130 132 124 97 53 15 351
189 240 244 254 256 244 214 198 198 205 210 225 256 255 240 200 175 163 156 154 156 163 166 168 166 160 155 151 146 143 137 135 134 129 127 130 132 130 123 106 67 26 6 353
201 254 275 272 245 218 209 201 200 206 209 225 251 271 257 131 115 137 154 161 168 173 173 171 165 161 160 156 149 142 137 136 134 131 131 132 130 125 114 89 47 19 2 353
203 241 292 316 71 159 198 198 194 202 205 209 226 240 181 137 154 164 169 173 177 177 173 171 169 166 160 153 148 144 141 136 132 131 131 132 130 121 102 66 36 11 355 349
196 225 275 315 4 304 245 186 181 192 209 201 208 222 173 145 115 76 154 179 175 169 166 162 156 148 140 136 138 134 135 135 133 131 132 132 126 114 87 50 17 351 340 335
192 204 290 327 332 316 339 100 165 180 210 202 195 162 126 126 87 30 358 164 156 149 145 142 138 135 133 136 137 134 133 132 131 133 134 131 124 111 72 18 350 335 324 316
174 178 241 335 342 303 291 337 218 144 213 200 176 166 163 143 135 197 26 88 101 105 114 120 122 125 129 134 135 133 135 133 135 135 131 126 120 106 48 353 332 318 308 298
153 178 196 235 285 277 268 298 90 141 231 300 181 175 166 160 144 124 97 88 98 104 110 117 121 126 132 133 131 131 131 133 131 124 120 116 104 75 21 354 326 312 309 309
171 176 187 178 223 262 293 72 155 203 18 44 87 119 117 108 106 108 105 104 105 106 108 115 117 117 119 125 127 126 127 126 120 117 114 102 74 34 20 357 327 317 318 319
199 191 186 196 216 268 328 11 45 132 111 97 100 119 124 118 115 111 106 105 104 108 108 111 116 114 107 113 125 128 130 126 119 113 105 82 51 29 16 350 327 323 325 322
241 173 165 241 265 264 325 34 44 73 106 112 124 127 126 122 123 119 117 113 110 111 112 116 117 118 114 111 113 123 129 123 116 108 91 67 46 16 355 339 324 323 322 317
209 170 180 240 260 127 245 161 115 96 104 106 102 111 126 125 126 126 126 122 120 117 114 116 121 123 122 117 113 117 119 114 107 98 82 59 28 343 327 326 323 328 307 314
193 176 179 214 207 187 197 159 132 124 124 125 118 104 105 122 125 125 123 122 123 123 119 116 116 121 122 120 117 114 111 110 109 102 85 23 326 315 316 321 323 334 335 332
Height
1484 1488 1485 1484 1485 1484 1483 1482 1482 1479 1474 1473 1466 1459 1457 1456 1455 1453 1453 1453 1454 1454 1457 1458 1459 1460 1461 1462 1463 1465 1468 1471 1475 1478 1482 1486 1490 1493 1495 1497 1499 1500 1500 1500
1485 1482 1480 1481 1482 1483 1483 1483 1481 1479 1474 1472 1466 1457 1451 1448 1447 1447 1447 1448 1449 1452 1453 1454 1455 1456 1457 1459 1460 1463 1465 1469 1473 1477 1482 1486 1489 1492 1494 1496 1498 1499 1499 1499
1479 1474 1473 1477 1479 1481 1479 1481 1481 1482 1476 1470 1468 1455 1445 1439 1439 1439 1439 1441 1443 1445 1447 1449 1451 1453 1455 1457 1459 1462 1465 1469 1473 1477 1481 1484 1488 1491 1493 1495 1497 1498 1498 1498
1475 1473 1472 1473 1474 1476 1476 1474 1475 1477 1479 1475 1467 1458 1441 1434 1432 1430 1430 1433 1435 1438 1441 1444 1446 1449 1452 1455 1459 1462 1466 1470 1474 1477 1480 1483 1486 1489 1492 1494 1495 1496 1496 1496
1466 1466 1468 1469 1467 1471 1472 1469 1471 1472 1474 1474 1466 1466 1441 1431 1425 1420 1420 1423 1426 1430 1435 1439 1442 1446 1450 1454 1458 1462 1465 1469 1473 1476 1479 1482 1485 1488 1490 1492 1494 1495 1495 1494
1462 1462 1461 1460 1461 1466 1467 1469 1469 1469 1471 1467 1452 1460 1436 1424 1414 1410 1410 1414 1418 1424 1430 1435 1440 1444 1448 1452 1457 1461 1464 1467 1471 1475 1479 1482 1484 1487 1489 1491 1492 1493 1493 1492
1457 1458 1457 1456 1458 1461 1465 1470 1471 1469 1466 1454 1440 1444 1423 1411 1404 1401 1402 1406 1411 1417 1423 1429 1435 1440 1444 1449 1454 1459 1462 1465 1470 1474 1478 1481 1484 1486 1488 1489 1490 1491 1491 1490
1454 1452 1449 1450 1451 1453 1455 1461 1462 1464 1458 1445 1432 1426 1409 1400 1396 1394 1396 1399 1405 1412 1418 1424 1430 1436 1441 1446 1451 1457 1461 1464 1468 1472 1476 1480 1483 1485 1487 1488 1489 1489 1488 1487
1449 1446 1438 1439 1441 1446 1450 1452 1451 1453 1444 1436 1422 1410 1400 1392 1389 1387 1389 1394 1400 1407 1414 1421 1428 1434 1439 1444 1449 1455 1459 1463 1467 1471 1475 1478 1481 1483 1485 1486 1487 1487 1486 1484
1443 1444 1436 1434 1438 1439 1440 1442 1450 1455 1448 1431 1414 1406 1394 1386 1384 1384 1386 1390 1397 1405 1412 1419 1426 1432 1438 1443 1449 1455 1459 1462 1466 1470 1474 1477 1479 1482 1483 1484 1484 1484 1483 1482
1437 1441 1434 1432 1430 1429 1436 1438 1436 1439 1440 1427 1410 1395 1373 1372 1374 1379 1383 1388 1394 1402 1409 1417 1425 1431 1437 1443 1448 1453 1458 1462 1465 1469 1472 1475 1477 1480 1481 1482 1482 1481 1480 1478
1431 1433 1428 1421 1415 1417 1421 1423 1427 1430 1427 1427 1415 1394 1367 1366 1368 1374 1381 1389 1395 1402 1409 1417 1424 1430 1436 1442 1447 1452 1457 1461 1465 1468 1471 1473 1476 1477 1479 1479 1479 1479 1477 1475
1425 1427 1421 1410 1410 1413 1414 1415 1417 1418 1421 1419 1414 1393 1369 1367 1371 1376 1382 1389 1397 1404 1411 1417 1423 1429 1434 1440 1445 1451 1455 1459 1463 1466 1469 1471 1474 1475 1476 1477 1477 1475 1473 1471
1417 1417 1414 1403 1395 1398 1402 1405 1408 1414 1415 1411 1405 1391 1377 1373 1375 1379 1384 1390 1397 1403 1409 1415 1421 1427 1433 1438 1444 1449 1454 1458 1461 1464 1467 1470 1472 1473 1474 1474 1473 1472 1470 1467
1411 1409 1404 1398 1392 1392 1391 1394 1398 1403 1404 1407 1398 1389 1378 1373 1374 1377 1383 1391 1398 1404 1408 1413 1419 1425 1431 1437 1442 1447 1452 1456 1459 1463 1466 1468 1470 1471 1471 1471 1470 1468 1466 1464
1406 1404 1398 1387 1377 1380 1383 1385 1390 1395 1399 1401 1396 1387 1374 1374 1376 1380 1385 1390 1396 1401 1406 1411 1417 1422 1428 1434 1440 1445 1450 1454 1458 1461 1464 1466 1468 1468 1469 1468 1466 1465 1463 1461
1400 1399 1393 1381 1372 1374 1377 1375 1381 1386 1388 1391 1390 1382 1375 1376 1378 1380 1384 1388 1392 1397 1402 1408 1413 1420 1426 1432 1438 1444 1449 1453 1457 1460 1462 1464 1465 1466 1465 1464 1463 1462 1460 1457
1394 1394 1391 1384 1379 1378 1371 1364 1369 1376 1378 1380 1379 1375 1373 1375 1379 1383 1386 1388 1391 1396 1401 1407 1413 1420 1427 1433 1439 1444 1449 1452 1455 1458 1460 1462 1463 1463 1463 1462 1460 1459 1456 1453
1388 1390 1389 1388 1383 1376 1366 1365 1367 1372 1374 1373 1375 1376 1376 1377 1380 1385 1387 1389 1393 1396 1402 1408 1414 1420 1427 1433 1438 1443 1447 1451 1454 1456 1458 1460 1461 1461 1460 1459 1458 1455 1452 1449
1387 1388 1390 1390 1387 1383 1370 1364 1364 1368 1373 1368 1369 1372 1375 1377 1385 1388 1387 1390 1394 1399 1404 1410 1416 1422 1428 1433 1438 1442 1446 1449 1452 1455 1457 1458 1458 1458 1458 1457 1455 1452 1449 1445
1387 1388 1389 1390 1389 1382 1368 1364 1364 1376 1372 1366 1365 1367 1371 1374 1378 1385 1387 1392 1396 1401 1407 1413 1418 1424 1429 1434 1438 1442 1445 1449 1452 1454 1455 1456 1456 1456 1455 1454 1451 1448 1445 1441
1382 1385 1387 1388 1389 1384 1365 1364 1368 1368 1365 1364 1364 1366 1371 1375 1379 1385 1390 1395 1400 1405 1410 1416 1420 1425 1430 1435 1438 1442 1445 1448 1451 1453 1454 1454 1454 1454 1453 1451 1448 1444 1440 1435
1378 1377 1378 1379 1378 1371 1367 1366 1366 1366 1366 1366 1366 1368 1371 1377 1384 1389 1394 1400 1404 1409 1414 1419 1422 1427 1431 1436 1439 1442 1445 1448 1450 1451 1452 1453 1453 1451 1449 1447 1444 1440 1435 1431
1373 1371 1374 1374 1370 1368 1368 1367 1367 1368 1368 1368 1370 1372 1375 1379 1387 1393 1398 1403 1408 1412 1416 1420 1424 1428 1432 1436 1440 1443 1445 1447 1449 1450 1451 1451 1450 1449 1447 1444 1440 1436 1431 1426
1368 1369 1371 1371 1369 1368 1368 1368 1368 1370 1371 1373 1375 1378 1381 1385 1391 1397 1402 1407 1411 1415 1419 1423 1426 1429 1433 1437 1440 1443 1445 1447 1448 1449 1449 1449 1448 1446 1443 1440 1436 1432 1428 1424
1364 1365 1367 1366 1363 1365 1365 1366 1369 1371 1373 1376 1379 1384 1389 1392 1396 1401 1406 1410 1414 1417 1421 1424 1428 1431 1434 1437 1440 1443 1444 1446 1447 1447 1447 1446 1445 1443 1440 1436 1433 1429 1425 1421